Location: Usti nad Labem
(50.6670°N, 14.0330°E)
Time: 19:27:36
(UTC+02:00)

ISS - Visible Passes

Search period start: 17 August 2022 00:00
Search period end: 27 August 2022 00:00
Orbit: 412 x 420 km, 51.6° (Epoch: 17 August)

Date Brightness Start Highest point End Pass type
(mag) Time Alt. Az. Time Alt. Az. Time Alt. Az.
24 Aug -1.4 05:31:06 10° S 05:33:23 17° SE 05:35:41 10° E visible
25 Aug -1.1 04:43:48 10° SSE 04:44:57 11° SE 04:46:07 10° ESE visible
26 Aug -2.5 05:29:26 10° SW 05:32:29 33° SSE 05:35:33 10° E visible
